Terug naar catalogus

STARLINK-3851

ActiefCommunicatieVLEO
NORAD 52344·PAYLOAD·🇺🇸 United States

Gelanceerd Apr 29, 2022 vanaf Cape Canaveral Space Force Station

Loading…

Volgende Passages (komende 24 uur)

TLE

VersSource: CelesTrak SupGP

Epoch: Sep 14, 2026, 21:05 UTC

1 52344C 22045P   26257.87895833  .00046738  00000+0  13810-2 0  2573
2 52344  53.1596  61.8942 0001272  77.3622   9.7992 15.34364430    18

Volg STARLINK-3851 in realtime met AllMySat

Download on the App Store